| time (UTC) | temp C | wind direction | speed KPH | gust KPH | rain 1hr cm | rain 24hr cm | rain mn cm | humidity % | barometer mb |
| 20260504110427 | 5 | 148 | 0.0 | 0.0 | 0.00 | 0.00 | 0.00 | 76 | 1009.9 |
| 20260504100344 | 5 | 147 | 0.0 | 1.6 | 0.00 | 0.00 | 0.00 | 74 | 1009.4 |
| 20260504081737 | 4 | 178 | 0.0 | 0.0 | 0.00 | 0.00 | 0.00 | 76 | 1009.6 |
| 20260504081233 | 4 | 178 | 0.0 | 0.0 | 0.00 | 0.00 | 0.00 | 75 | 1009.6 |
| 20260504080730 | 3 | 157 | 0.0 | 0.0 | 0.00 | 0.00 | 0.00 | 76 | 1009.5 |
| 20260504080226 | 3 | 157 | 1.6 | 1.6 | 0.00 | 0.00 | 0.00 | 77 | 1009.5 |
| 20260504070153 | 3 | 157 | 0.0 | 0.0 | 0.00 | 0.00 | 0.00 | 75 | 1009.4 |
| 20260504045618 | 5 | 157 | 1.6 | 1.6 | 0.00 | 0.00 | 0.00 | 67 | 1009.4 |
| 20260504045112 | 5 | 157 | 1.6 | 1.6 | 0.00 | 0.00 | 0.00 | 67 | 1009.4 |
| 20260504044611 | 5 | 157 | 1.6 | 1.6 | 0.00 | 0.00 | 0.00 | 67 | 1009.4 |
| 20260504044107 | 5 | 157 | 0.0 | 0.0 | 0.00 | 0.00 | 0.00 | 69 | 1009.2 |
| 20260504043604 | 4 | 157 | 1.6 | 1.6 | 0.00 | 0.00 | 0.00 | 72 | 1009.3 |
| 20260504043101 | 4 | 157 | 1.6 | 1.6 | 0.00 | 0.00 | 0.00 | 73 | 1009.2 |
| 20260504042558 | 4 | 157 | 3.2 | 3.2 | 0.00 | 0.00 | 0.00 | 74 | 1009.3 |
| 20260504042055 | 3 | 157 | 0.0 | 0.0 | 0.00 | 0.00 | 0.00 | 75 | 1009.0 |
| 20260504041551 | 3 | 157 | 0.0 | 0.0 | 0.00 | 0.00 | 0.00 | 76 | 1008.9 |
| 20260504041048 | 3 | 157 | 0.0 | 0.0 | 0.00 | 0.00 | 0.00 | 76 | 1009.1 |
| 20260504040545 | 3 | 157 | 0.0 | 0.0 | 0.00 | 0.00 | 0.00 | 76 | 1009.0 |
| 20260504040041 | 3 | 157 | 1.6 | 1.6 | 0.00 | 0.00 | 0.00 | 76 | 1009.0 |
| 20260504035538 | 4 | 157 | 0.0 | 1.6 | 0.00 | 0.00 | 0.00 | 75 | 1008.9 |
| 20260504035034 | 4 | 157 | 0.0 | 0.0 | 0.00 | 0.00 | 0.00 | 75 | 1008.8 |
| 20260504034533 | 4 | 157 | 0.0 | 1.6 | 0.00 | 0.00 | 0.00 | 75 | 1009.0 |
| 20260504034029 | 4 | 157 | 0.0 | 1.6 | 0.00 | 0.00 | 0.00 | 76 | 1008.9 |
| 20260504033528 | 4 | 157 | 1.6 | 1.6 | 0.00 | 0.00 | 0.00 | 76 | 1008.9 |
| 20260504033024 | 4 | 157 | 0.0 | 0.0 | 0.00 | 0.00 | 0.00 | 75 | 1008.9 |
| 20260504032521 | 4 | 157 | 1.6 | 1.6 | 0.00 | 0.00 | 0.00 | 75 | 1008.9 |
| 20260504032018 | 4 | 157 | 0.0 | 1.6 | 0.00 | 0.00 | 0.00 | 74 | 1008.9 |
| 20260504031515 | 4 | 157 | 0.0 | 1.6 | 0.00 | 0.00 | 0.00 | 75 | 1009.0 |
| 20260504031011 | 5 | 157 | 0.0 | 0.0 | 0.00 | 0.00 | 0.00 | 74 | 1008.9 |
| 20260504030509 | 5 | 157 | 0.0 | 1.6 | 0.00 | 0.00 | 0.00 | 73 | 1008.8 |
| 20260504030004 | 5 | 157 | 0.0 | 0.0 | 0.00 | 0.00 | 0.00 | 74 | 1009.1 |
| 20260504025501 | 5 | 157 | 1.6 | 1.6 | 0.00 | 0.00 | 0.00 | 74 | 1009.0 |
| 20260504024958 | 5 | 157 | 0.0 | 0.0 | 0.00 | 0.00 | 0.00 | 73 | 1009.2 |
| 20260504024455 | 5 | 157 | 0.0 | 1.6 | 0.00 | 0.00 | 0.00 | 73 | 1008.9 |
| 20260504023953 | 5 | 157 | 1.6 | 1.6 | 0.00 | 0.00 | 0.00 | 72 | 1008.9 |
| 20260504023449 | 5 | 157 | 0.0 | 1.6 | 0.00 | 0.00 | 0.00 | 73 | 1009.1 |
| 20260504022944 | 5 | 157 | 0.0 | 0.0 | 0.00 | 0.00 | 0.00 | 71 | 1009.0 |
| 20260504022441 | 5 | 157 | 1.6 | 1.6 | 0.00 | 0.00 | 0.00 | 70 | 1009.1 |
| 20260504021938 | 5 | 157 | 0.0 | 1.6 | 0.00 | 0.00 | 0.00 | 69 | 1009.0 |
| 20260504021435 | 5 | 157 | 1.6 | 1.6 | 0.00 | 0.00 | 0.00 | 68 | 1009.2 |
| 20260504020932 | 5 | 157 | 1.6 | 1.6 | 0.00 | 0.00 | 0.00 | 68 | 1009.0 |
| 20260504020429 | 5 | 157 | 1.6 | 1.6 | 0.00 | 0.00 | 0.00 | 68 | 1009.2 |
| 20260504015925 | 5 | 157 | 0.0 | 1.6 | 0.00 | 0.00 | 0.00 | 67 | 1009.1 |
| 20260504015421 | 5 | 157 | 1.6 | 1.6 | 0.00 | 0.00 | 0.00 | 67 | 1009.2 |
| 20260504014917 | 5 | 157 | 0.0 | 0.0 | 0.00 | 0.00 | 0.00 | 69 | 1009.0 |
| 20260504014414 | 6 | 157 | 0.0 | 0.0 | 0.00 | 0.00 | 0.00 | 69 | 1009.0 |
| 20260504013911 | 5 | 187 | 1.6 | 1.6 | 0.00 | 0.00 | 0.00 | 67 | 1009.2 |
| 20260504013409 | 6 | 187 | 0.0 | 0.0 | 0.00 | 0.00 | 0.00 | 66 | 1009.1 |
| 20260504012905 | 6 | 187 | 0.0 | 1.6 | 0.00 | 0.00 | 0.00 | 65 | 1009.0 |
| 20260504012403 | 6 | 187 | 0.0 | 1.6 | 0.00 | 0.00 | 0.00 | 65 | 1008.9 |
| 20260504011900 | 6 | 187 | 0.0 | 1.6 | 0.00 | 0.00 | 0.00 | 65 | 1008.9 |
| 20260504011357 | 6 | 187 | 0.0 | 0.0 | 0.00 | 0.00 | 0.00 | 65 | 1008.7 |
| 20260504010853 | 6 | 187 | 1.6 | 1.6 | 0.00 | 0.00 | 0.00 | 64 | 1008.6 |
| 20260504010349 | 6 | 187 | 1.6 | 1.6 | 0.00 | 0.00 | 0.00 | 63 | 1008.9 |
| 20260504005845 | 6 | 187 | 0.0 | 0.0 | 0.00 | 0.00 | 0.00 | 63 | 1008.8 |
| 20260504005342 | 7 | 187 | 0.0 | 1.6 | 0.00 | 0.00 | 0.00 | 63 | 1008.6 |
| 20260504004839 | 7 | 187 | 1.6 | 1.6 | 0.00 | 0.00 | 0.00 | 64 | 1008.7 |
| 20260504004337 | 7 | 187 | 0.0 | 1.6 | 0.00 | 0.00 | 0.00 | 63 | 1008.9 |
| 20260504003833 | 7 | 187 | 0.0 | 1.6 | 0.00 | 0.00 | 0.00 | 61 | 1008.6 |
| 20260504003330 | 7 | 187 | 0.0 | 0.0 | 0.00 | 0.00 | 0.00 | 61 | 1008.5 |
| 20260504002827 | 7 | 187 | 0.0 | 0.0 | 0.00 | 0.00 | 0.00 | 59 | 1008.5 |
| 20260504002324 | 8 | 187 | 0.0 | 0.0 | 0.00 | 0.00 | 0.00 | 58 | 1008.4 |
| 20260504001822 | 8 | 187 | 0.0 | 0.0 | 0.00 | 0.00 | 0.00 | 57 | 1008.2 |
| 20260504001319 | 8 | 187 | 0.0 | 1.6 | 0.00 | 0.00 | 0.00 | 56 | 1008.4 |
| 20260504000815 | 8 | 187 | 0.0 | 0.0 | 0.00 | 0.00 | 0.00 | 55 | 1008.2 |
| 20260504000312 | 9 | 188 | 0.0 | 1.6 | 0.00 | 0.00 | 0.00 | 53 | 1008.2 |
| 20260503235810 | 9 | 189 | 0.0 | 1.6 | 0.00 | 0.00 | 0.00 | 51 | 1008.4 |
| 20260503235307 | 10 | 189 | 0.0 | 0.0 | 0.00 | 0.00 | 0.00 | 50 | 1008.2 |
| 20260503234805 | 10 | 190 | 0.0 | 0.0 | 0.00 | 0.00 | 0.00 | 50 | 1008.0 |
| 20260503234303 | 10 | 178 | 1.6 | 1.6 | 0.00 | 0.00 | 0.00 | 48 | 1008.2 |
| 20260503233800 | 11 | 194 | 1.6 | 1.6 | 0.00 | 0.00 | 0.00 | 47 | 1007.9 |
| 20260503233255 | 11 | 212 | 3.2 | 4.8 | 0.00 | 0.00 | 0.00 | 46 | 1008.0 |
| 20260503232753 | 11 | 198 | 1.6 | 1.6 | 0.00 | 0.00 | 0.00 | 46 | 1007.9 |
| 20260503232250 | 11 | 220 | 3.2 | 3.2 | 0.00 | 0.00 | 0.00 | 45 | 1008.1 |
| 20260503231748 | 11 | 50 | 4.8 | 6.4 | 0.00 | 0.00 | 0.00 | 44 | 1008.1 |
| 20260503231245 | 11 | 203 | 3.2 | 3.2 | 0.00 | 0.00 | 0.00 | 45 | 1007.8 |
| 20260503230740 | 11 | 217 | 4.8 | 4.8 | 0.00 | 0.00 | 0.00 | 44 | 1007.9 |
| 20260503230238 | 11 | 153 | 4.8 | 6.4 | 0.00 | 0.00 | 0.00 | 44 | 1008.0 |
| 20260503225736 | 11 | 192 | 1.6 | 3.2 | 0.00 | 0.00 | 0.00 | 43 | 1008.0 |
| 20260503225235 | 11 | 238 | 6.4 | 11.3 | 0.00 | 0.00 | 0.00 | 42 | 1007.8 |
| 20260503224732 | 12 | 257 | 4.8 | 6.4 | 0.00 | 0.00 | 0.00 | 42 | 1007.8 |
| 20260503224230 | 12 | 156 | 1.6 | 1.6 | 0.00 | 0.00 | 0.00 | 42 | 1007.9 |
| 20260503223728 | 12 | 83 | 6.4 | 9.7 | 0.00 | 0.00 | 0.00 | 40 | 1007.9 |
| 20260503223225 | 12 | 271 | 9.7 | 14.5 | 0.00 | 0.00 | 0.00 | 40 | 1007.6 |
| 20260503222721 | 12 | 260 | 4.8 | 6.4 | 0.00 | 0.00 | 0.00 | 41 | 1008.0 |
| 20260503222219 | 12 | 205 | 1.6 | 1.6 | 0.00 | 0.00 | 0.00 | 41 | 1007.8 |
| 20260503221718 | 12 | 260 | 8.0 | 11.3 | 0.00 | 0.00 | 0.00 | 38 | 1007.6 |
| 20260503221215 | 12 | 229 | 4.8 | 9.7 | 0.00 | 0.00 | 0.00 | 40 | 1007.6 |
| 20260503220711 | 12 | 24 | 1.6 | 1.6 | 0.00 | 0.00 | 0.00 | 39 | 1007.5 |
| 20260503220208 | 12 | 203 | 9.7 | 12.9 | 0.00 | 0.00 | 0.00 | 37 | 1007.6 |
| 20260503215705 | 12 | 199 | 1.6 | 3.2 | 0.00 | 0.00 | 0.00 | 38 | 1007.6 |
| 20260503215202 | 12 | 179 | 3.2 | 6.4 | 0.00 | 0.00 | 0.00 | 38 | 1007.3 |
| 20260503214700 | 12 | 228 | 9.7 | 12.9 | 0.00 | 0.00 | 0.00 | 36 | 1007.4 |
| 20260503214155 | 13 | 352 | 6.4 | 9.7 | 0.00 | 0.00 | 0.00 | 35 | 1007.4 |
| 20260503213649 | 13 | 261 | 11.3 | 14.5 | 0.00 | 0.00 | 0.00 | 36 | 1007.2 |
| 20260503213146 | 13 | 268 | 9.7 | 12.9 | 0.00 | 0.00 | 0.00 | 35 | 1007.4 |
| 20260503212643 | 12 | 248 | 4.8 | 6.4 | 0.00 | 0.00 | 0.00 | 35 | 1007.3 |
| 20260503212140 | 13 | 237 | 6.4 | 6.4 | 0.00 | 0.00 | 0.00 | 35 | 1007.2 |
| 20260503211638 | 13 | 203 | 3.2 | 4.8 | 0.00 | 0.00 | 0.00 | 37 | 1007.3 |
| 20260503211133 | 13 | 222 | 9.7 | 11.3 | 0.00 | 0.00 | 0.00 | 33 | 1007.5 |
| 20260503210630 | 13 | 268 | 3.2 | 4.8 | 0.00 | 0.00 | 0.00 | 35 | 1007.0 |
| 20260503210126 | 13 | 221 | 3.2 | 4.8 | 0.00 | 0.00 | 0.00 | 35 | 1007.3 |
| 20260503205622 | 13 | 249 | 6.4 | 9.7 | 0.00 | 0.00 | 0.00 | 35 | 1007.2 |
| 20260503205119 | 13 | 199 | 3.2 | 4.8 | 0.00 | 0.00 | 0.00 | 35 | 1007.2 |
| 20260503204616 | 12 | 183 | 6.4 | 6.4 | 0.00 | 0.00 | 0.00 | 34 | 1007.3 |
| 20260503204113 | 13 | 216 | 11.3 | 14.5 | 0.00 | 0.00 | 0.00 | 34 | 1007.4 |
| 20260503203610 | 13 | 241 | 4.8 | 9.7 | 0.00 | 0.00 | 0.00 | 35 | 1007.2 |
| 20260503203107 | 14 | 239 | 6.4 | 9.7 | 0.00 | 0.00 | 0.00 | 34 | 1007.0 |
| 20260503202605 | 13 | 261 | 8.0 | 9.7 | 0.00 | 0.00 | 0.00 | 34 | 1007.2 |
| 20260503202103 | 13 | 61 | 6.4 | 6.4 | 0.00 | 0.00 | 0.00 | 33 | 1007.4 |
| 20260503201600 | 13 | 212 | 6.4 | 9.7 | 0.00 | 0.00 | 0.00 | 34 | 1007.5 |
| 20260503201057 | 12 | 62 | 6.4 | 11.3 | 0.00 | 0.00 | 0.00 | 34 | 1007.9 |
| 20260503200548 | 12 | 278 | 3.2 | 6.4 | 0.00 | 0.00 | 0.00 | 37 | 1007.5 |
| 20260503200044 | 13 | 313 | 9.7 | 12.9 | 0.00 | 0.00 | 0.00 | 33 | 1007.6 |
| 20260503195542 | 13 | 239 | 14.5 | 16.1 | 0.00 | 0.00 | 0.00 | 32 | 1007.5 |
| 20260503195038 | 13 | 277 | 6.4 | 11.3 | 0.00 | 0.00 | 0.00 | 35 | 1007.5 |
| 20260503194536 | 13 | 188 | 12.9 | 16.1 | 0.00 | 0.00 | 0.00 | 35 | 1007.6 |
| 20260503194035 | 13 | 239 | 3.2 | 4.8 | 0.00 | 0.00 | 0.00 | 36 | 1007.9 |
| 20260503193532 | 13 | 260 | 6.4 | 6.4 | 0.00 | 0.00 | 0.00 | 32 | 1007.6 |
| 20260503193027 | 13 | 204 | 14.5 | 24.1 | 0.00 | 0.00 | 0.00 | 34 | 1007.7 |
| 20260503192524 | 12 | 174 | 4.8 | 6.4 | 0.00 | 0.00 | 0.00 | 34 | 1007.8 |
| 20260503192020 | 12 | 211 | 8.0 | 12.9 | 0.00 | 0.00 | 0.00 | 35 | 1007.9 |
| 20260503191517 | 11 | 58 | 3.2 | 3.2 | 0.00 | 0.00 | 0.00 | 39 | 1007.8 |
| 20260503191014 | 12 | 212 | 6.4 | 6.4 | 0.00 | 0.00 | 0.00 | 38 | 1008.2 |
| 20260503190511 | 12 | 250 | 6.4 | 9.7 | 0.00 | 0.00 | 0.00 | 34 | 1008.1 |
| 20260503190008 | 12 | 233 | 14.5 | 20.9 | 0.00 | 0.00 | 0.00 | 33 | 1007.9 |
| 20260503185503 | 12 | 276 | 4.8 | 6.4 | 0.00 | 0.00 | 0.00 | 36 | 1008.1 |
| 20260503184958 | 12 | 269 | 6.4 | 9.7 | 0.00 | 0.00 | 0.00 | 35 | 1008.1 |
| 20260503184454 | 13 | 235 | 8.0 | 12.9 | 0.00 | 0.00 | 0.00 | 33 | 1008.2 |
| 20260503183951 | 12 | 15 | 6.4 | 9.7 | 0.00 | 0.00 | 0.00 | 37 | 1008.1 |
| 20260503183448 | 12 | 266 | 8.0 | 12.9 | 0.00 | 0.00 | 0.00 | 34 | 1008.3 |
| 20260503182944 | 11 | 223 | 8.0 | 11.3 | 0.00 | 0.00 | 0.00 | 37 | 1007.9 |
| 20260503182443 | 11 | 214 | 1.6 | 3.2 | 0.00 | 0.00 | 0.00 | 35 | 1008.1 |
| 20260503181940 | 11 | 211 | 1.6 | 3.2 | 0.00 | 0.00 | 0.00 | 38 | 1008.5 |
| 20260503181437 | 11 | 61 | 4.8 | 6.4 | 0.00 | 0.00 | 0.00 | 37 | 1008.5 |
| 20260503180933 | 11 | 192 | 1.6 | 1.6 | 0.00 | 0.00 | 0.00 | 42 | 1008.5 |
| 20260503180432 | 11 | 47 | 3.2 | 4.8 | 0.00 | 0.00 | 0.00 | 36 | 1008.4 |
| 20260503175928 | 10 | 210 | 12.9 | 14.5 | 0.00 | 0.00 | 0.00 | 37 | 1008.6 |
| 20260503175426 | 10 | 226 | 8.0 | 9.7 | 0.00 | 0.00 | 0.00 | 40 | 1008.5 |
| 20260503174922 | 11 | 243 | 4.8 | 4.8 | 0.00 | 0.00 | 0.00 | 41 | 1008.5 |
| 20260503174420 | 12 | 199 | 1.6 | 1.6 | 0.00 | 0.00 | 0.00 | 37 | 1008.5 |
| 20260503173914 | 11 | 126 | 1.6 | 3.2 | 0.00 | 0.00 | 0.00 | 46 | 1008.5 |
| 20260503173411 | 9 | 318 | 1.6 | 3.2 | 0.00 | 0.00 | 0.00 | 39 | 1008.5 |
| 20260503172908 | 10 | 242 | 4.8 | 6.4 | 0.00 | 0.00 | 0.00 | 40 | 1008.9 |
| 20260503172406 | 10 | 327 | 6.4 | 9.7 | 0.00 | 0.00 | 0.00 | 39 | 1008.8 |
| 20260503171901 | 10 | 234 | 6.4 | 9.7 | 0.00 | 0.00 | 0.00 | 42 | 1008.7 |
| 20260503171358 | 10 | 194 | 1.6 | 3.2 | 0.00 | 0.00 | 0.00 | 44 | 1008.6 |
| 20260503170856 | 9 | 53 | 3.2 | 3.2 | 0.00 | 0.00 | 0.00 | 46 | 1008.6 |
| 20260503170352 | 10 | 152 | 3.2 | 3.2 | 0.00 | 0.00 | 0.00 | 38 | 1008.9 |
| 20260503150744 | 8 | 183 | 1.6 | 3.2 | 0.00 | 0.00 | 0.00 | 50 | 1009.6 |
| 20260503150240 | 6 | 131 | 3.2 | 4.8 | 0.00 | 0.00 | 0.00 | 54 | 1009.6 |
| 20260503140205 | 7 | 60 | 3.2 | 3.2 | 0.00 | 0.00 | 0.00 | 62 | 1009.6 |
| 20260503131134 | 6 | 155 | 3.2 | 6.4 | 0.00 | 0.00 | 0.00 | 63 | 1009.9 |
| 20260503130632 | 5 | 73 | 1.6 | 3.2 | 0.00 | 0.00 | 0.00 | 66 | 1009.8 |
| 20260503130129 | 5 | 123 | 3.2 | 3.2 | 0.00 | 0.00 | 0.00 | 67 | 1009.7 |